www.pogodaiklimat.ru

Погода и климат >> Архив погоды >> Венгрия >> Порозло


ПОГОДА в Порозло

  • Прогноз погоды в Порозло
  • Монитор погоды в Порозло

АРХИВ ПОГОДЫ в Порозло

Время (UTC), дата Ветер
(напр.,м/с)
 
Видим.   Явления Облачность Т
(С)
Тd
(С)
f
(%)
Тe
(С)
Тes
(С)
Комфортность P
(гПа)
Po
(гПа)
Тmin
(С)
Tmax
(С)
R
(мм)
R24
(мм)
S
(см)
01 10.06 СВ 3 н/о н/о +18.7 +16.7 88 +20 +20 1019.7 1009.0
02 10.06 СВ 2 н/о н/о +18.1 +16.6 91 +19 +19 1019.5 1008.7
03 10.06 СВ 2 н/о н/о +17.9 +16.2 90 +18 +18 1019.3 1008.5
04 10.06 СВ 2 н/о н/о +19.0 +16.4 85 +21 +21 комфорт 1019.3 1008.6
05 10.06 СВ 3 н/о н/о +21.2 +17.4 79 +25 +25 комфорт 1019.0 1008.4
06 10.06 СВ 4
{7}
н/о н/о +22.4 +17.5 74 +27 +27 душно 1019.0 1008.4 +17.9
07 10.06 СВ 3
{7}
н/о н/о +24.1 +18.5 71 +29 +29 душно 1018.6 1008.1
08 10.06 В 4 н/о н/о +25.8 +19.2 67 +31 +31 очень
душно
1018.2 1007.7
09 10.06 В 3 н/о н/о +27.7 +20.5 65 +34 +34 очень
душно
1017.9 1007.5
10 10.06 В 3 н/о н/о +28.5 +20.0 60 +35 +35 очень
душно
1017.4 1007.0
11 10.06 СВ 2 н/о н/о +29.6 +19.9 56 +36 +36 очень
душно
1016.9 1006.6
12 10.06 СВ 2 н/о н/о +30.1 +18.5 50 +35 +35 очень
душно
1016.4 1006.1
13 10.06 СВ 2 н/о н/о +31.7 +19.0 47 +37 +37 очень
душно
1015.6 1005.4
14 10.06 СВ 1 н/о н/о +31.1 +17.1 43 +35 +35 очень
душно
1015.2 1004.9
15 10.06 З 1 н/о н/о +30.5 +17.2 45 +34 +34 очень
душно
1014.6 1004.3
16 10.06 С 2 н/о н/о +30.8 +18.5 48 +36 +36 очень
душно
1014.1 1003.8
17 10.06 СВ 1 н/о н/о +30.6 +18.7 49 +36 +36 очень
душно
1013.9 1003.6
18 10.06 СВ 2 н/о н/о +27.9 +18.6 57 +33 +33 очень
душно
1014.1 1003.7 +31.8
19 10.06 СВ 2 н/о н/о +25.3 +18.0 64 +30 +30 душно 1014.4 1004.0
20 10.06 В 2 н/о н/о +24.3 +17.8 67 +28 +28 душно 1014.5 1004.0
21 10.06 СВ 2 н/о н/о +23.2 +17.7 71 +29 +29 душно 1014.2 1003.7
22 10.06 СВ 2 н/о н/о +22.0 +17.4 75 +26 +26 душно 1014.3 1003.7
23 10.06 В 3 н/о н/о +23.2 +18.1 73 +29 +29 душно 1014.3 1003.8
00 11.06 В 3 н/о н/о +22.1 +17.9 77 +27 +27 душно 1014.3 1003.7
01 11.06 В 3 н/о н/о +21.3 +17.5 79 +25 +25 комфорт 1014.1 1003.5
02 11.06 СВ 2 н/о н/о +19.6 +17.6 88 +23 +23 комфорт 1014.0 1003.4
03 11.06 СВ 2 н/о н/о +17.2 +16.7 97 +18 +18 1014.2 1003.5
04 11.06 СВ 2 н/о н/о +19.0 +17.0 88 +21 +21 комфорт 1014.7 1004.0
05 11.06 СВ 3 н/о н/о +21.3 +17.7 80 +25 +25 комфорт 1014.7 1004.1
06 11.06 СВ 4 н/о н/о +22.6 +17.3 72 +27 +27 душно 1015.2 1004.7 +17.2
07 11.06 СВ 3 н/о н/о +24.4 +17.9 67 +29 +29 душно 1014.9 1004.4
08 11.06 В 3 н/о н/о +25.9 +17.5 60 +30 +30 душно 1015.1 1004.7
09 11.06 В 3 н/о н/о +28.0 +17.5 53 +32 +32 душно 1014.9 1004.5
10 11.06 В 3 н/о н/о +29.2 +17.7 50 +34 +34 очень
душно
1014.5 1004.2
11 11.06 В 3
{7}
н/о н/о +30.2 +17.0 45 +34 +34 очень
душно
1014.1 1003.8
12 11.06 В 3
{7}
н/о н/о +30.9 +16.5 42 +34 +34 душно 1013.4 1003.2
13 11.06 В 3 н/о н/о +31.6 +15.1 37 +34 +34 душно 1013.1 1002.9
14 11.06 ЮВ 2 н/о н/о +31.0 +15.8 40 +34 +34 душно 1012.9 1002.7
15 11.06 ЮЗ 1
{10}
н/о н/о +26.6 +19.5 65 +32 +32 очень
душно
1013.4 1003.0
16 11.06 ЮВ 3
{8}
н/о н/о +29.1 +17.3 49 +33 +33 очень
душно
1012.8 1002.5
17 11.06 В 2 н/о н/о +28.1 +17.9 54 +33 +33 очень
душно
1012.9 1002.6
18 11.06 В 2 н/о н/о +26.4 +17.2 57 +30 +30 душно 1013.9 1003.5 +32.6 0.5
19 11.06 ЮВ 2 н/о н/о +25.2 +16.4 58 +29 +29 душно 1014.3 1003.9
20 11.06 В 1 н/о н/о +22.9 +17.6 72 +28 +28 душно 1014.5 1004.0
21 11.06 ЮВ 2 н/о н/о +23.0 +17.0 69 +28 +28 душно 1014.7 1004.2
22 11.06 ЮВ 1 н/о н/о +22.1 +17.3 74 +27 +27 душно 1015.1 1004.5
23 11.06 В 1 н/о н/о +21.3 +17.3 78 +25 +25 комфорт 1015.2 1004.6
00 12.06 В 2 н/о н/о +20.7 +17.9 84 +25 +25 комфорт 1015.0 1004.4
01 12.06 СВ 1 н/о н/о +18.5 +16.8 90 +20 +20 1014.9 1004.2
02 12.06 С 1 н/о н/о +18.0 +16.9 93 +19 +19 1014.6 1003.9
03 12.06 В 2 н/о н/о +17.8 +17.0 95 +18 +18 1014.7 1004.0
04 12.06 СВ 2 н/о н/о +18.7 +17.7 94 +20 +20 1014.9 1004.2
05 12.06 СВ 2 н/о н/о +20.9 +18.3 85 +26 +26 душно 1015.0 1004.4
06 12.06 СВ 2 н/о н/о +23.9 +19.0 74 +29 +29 душно 1014.9 1004.4 +17.5
07 12.06 СВ 2 н/о н/о +25.4 +19.5 70 +31 +31 очень
душно
1015.1 1004.7
08 12.06 СВ 2 н/о н/о +27.5 +19.8 63 +33 +33 очень
душно
1015.3 1004.9
09 12.06 В 3 н/о н/о +28.7 +19.3 57 +34 +34 очень
душно
1015.1 1004.8
10 12.06 В 2 н/о н/о +29.4 +20.0 57 +36 +36 очень
душно
1014.9 1004.6
11 12.06 В 2 н/о н/о +30.2 +19.3 52 +36 +36 очень
душно
1014.5 1004.2
12 12.06 ЮВ 2 н/о н/о +31.2 +17.5 44 +35 +35 очень
душно
1013.7 1003.5
13 12.06 ЮВ 2 н/о н/о +32.0 +16.3 39 +35 +35 очень
душно
1013.5 1003.3
14 12.06 Ю 3 н/о н/о +31.8 +16.5 40 +35 +35 очень
душно
1013.3 1003.1
15 12.06 Ю 2 н/о н/о +31.3 +16.1 40 +34 +34 душно 1013.0 1002.8
16 12.06 Ю 1 н/о н/о +31.7 +16.8 41 +35 +35 очень
душно
1012.9 1002.7
17 12.06 ЮВ 2 н/о н/о +30.8 +17.5 45 +35 +35 очень
душно
1013.0 1002.8
18 12.06 ЮВ 1 н/о н/о +29.6 +18.4 51 +34 +34 очень
душно
1012.9 1002.6 +32.3
19 12.06 ЮВ 1 н/о н/о +26.4 +19.3 65 +32 +32 очень
душно
1013.4 1003.0
20 12.06 Ю 1 н/о н/о +24.5 +19.6 74 +30 +30 очень
душно
1013.6 1003.1
21 12.06 С 1 н/о н/о +21.6 +19.0 85 +26 +26 душно 1013.9 1003.3
22 12.06 СЗ 1 н/о н/о +20.3 +18.2 88 +25 +25 комфорт 1014.3 1003.7
23 12.06 СВ 1 н/о н/о +20.8 +19.1 90 +26 +26 душно 1014.3 1003.7
00 13.06 СВ 2 н/о н/о +20.2 +18.3 89 +24 +24 комфорт 1014.1 1003.5
01 13.06 СВ 2 н/о н/о +19.1 +18.1 94 +21 +21 комфорт 1014.1 1003.4
02 13.06 СВ 2 н/о н/о +18.4 +17.9 97 +20 +20 1014.3 1003.6
03 13.06 СВ 2 н/о н/о +18.2 +18.0 99 +19 +19 1014.5 1003.8
04 13.06 СВ 1 н/о н/о +19.1 +18.3 95 +22 +22 комфорт 1014.8 1004.1
05 13.06 СВ 2 н/о н/о +21.2 +19.1 88 +26 +26 душно 1014.8 1004.2
06 13.06 СВ 2 н/о н/о +23.5 +19.6 79 +29 +29 душно 1015.3 1004.8 +18.2
07 13.06 В 2 н/о н/о +25.7 +20.0 71 +32 +32 очень
душно
1015.1 1004.7
08 13.06 В 2 н/о н/о +27.7 +19.8 62 +34 +34 очень
душно
1015.4 1005.0
09 13.06 В 3 н/о н/о +29.0 +20.2 59 +35 +35 очень
душно
1015.2 1004.9
10 13.06 В 3 н/о н/о +30.6 +20.2 54 +37 +37 очень
душно
1015.0 1004.7
11 13.06 ЮВ 3 н/о н/о +32.2 +18.4 44 +37 +37 очень
душно
1014.4 1004.2
12 13.06 ЮВ 3 н/о н/о +33.0 +18.0 41 +37 +37 очень
душно
1014.1 1003.9
13 13.06 Ю 3 н/о н/о +33.2 +16.6 37 +36 +36 очень
душно
1014.0 1003.8
14 13.06 Ю 3 н/о н/о +32.8 +17.0 39 +36 +36 очень
душно
1013.6 1003.4
15 13.06 Ю 3 н/о н/о +33.0 +16.8 38 +36 +36 очень
душно
1013.4 1003.2
16 13.06 Ю 3 н/о н/о +32.4 +17.5 41 +36 +36 очень
душно
1013.4 1003.2
17 13.06 Ю 2 н/о н/о +31.4 +18.4 46 +36 +36 очень
душно
1013.2 1003.0
18 13.06 ЮВ 2 н/о н/о +30.6 +19.6 52 +37 +37 очень
душно
1013.1 1002.8 +33.7
19 13.06 ЮВ 2 н/о н/о +27.8 +20.6 65 +35 +35 очень
душно
1013.1 1002.8
20 13.06 ЮВ 1 н/о н/о +25.7 +20.5 73 +32 +32 очень
душно
1014.3 1003.9
21 13.06 В 2 н/о н/о +24.4 +20.3 78 +30 +30 очень
душно
1014.8 1004.3
22 13.06 В 1 н/о н/о +23.8 +19.1 75 +29 +29 душно 1014.9 1004.4
23 13.06 СВ 2 н/о н/о +21.0 +19.1 89 +26 +26 душно 1015.2 1004.6
00 14.06 В 1 н/о н/о +21.2 +19.3 89 +26 +26 душно 1015.0 1004.4
01 14.06 штиль 0 н/о н/о +20.2 +18.9 92 +23 +23 комфорт 1014.9 1004.3
02 14.06 СВ 1 н/о н/о +19.7 +19.0 96 +24 +24 комфорт 1015.2 1004.5
03 14.06 СВ 1 н/о н/о +20.0 +19.3 96 +24 +24 комфорт 1015.1 1004.5
04 14.06 СВ 2 н/о н/о +20.5 +19.2 92 +25 +25 комфорт 1015.9 1005.3
05 14.06 СВ 1 н/о н/о +23.2 +20.0 82 +30 +30 очень
душно
1016.0 1005.5
06 14.06 СВ 2 н/о н/о +25.9 +20.5 72 +32 +32 очень
душно
1016.2 1005.8 +19.4
07 14.06 СВ 2 н/о н/о +27.3 +20.6 67 +34 +34 очень
душно
1016.8 1006.4
08 14.06 В 2 н/о н/о +29.0 +21.5 64 +37 +37 очень
душно
1017.0 1006.7
09 14.06 В 2 н/о н/о +30.5 +21.6 59 +39 +39 очень
душно
1017.2 1006.9
10 14.06 В 2 н/о н/о +31.4 +21.6 56 +40 +40 очень
душно
1017.4 1007.1
11 14.06 В 2 н/о н/о +32.9 +21.7 52 +41 +41 опасность
перегрева
1016.8 1006.6
12 14.06 В 2 н/о н/о +33.6 +20.4 46 +40 +40 очень
душно
1016.5 1006.3
13 14.06 Ю 3
{7}
н/о н/о +32.9 +21.1 50 +40 +40 очень
душно
1016.4 1006.2
14 14.06 Ю 3 н/о н/о +32.9 +20.8 49 +40 +40 очень
душно
1016.1 1005.9
15 14.06 ЮЗ 3 н/о н/о +33.0 +21.5 51 +41 +41 опасность
перегрева
1016.0 1005.8
16 14.06 ЮЗ 2 н/о н/о +31.3 +21.5 56 +39 +39 очень
душно
1015.6 1005.3
17 14.06 В 3
{11}
н/о н/о +28.2 +18.9 57 +33 +33 очень
душно
1016.6 1006.2
18 14.06 СВ 2 н/о н/о +25.1 +21.4 80 +32 +32 очень
душно
1016.9 1006.4 +34.0 2
19 14.06 штиль 0 н/о н/о +25.1 +23.7 92 +34 +34 очень
душно
1016.8 1006.3
20 14.06 СВ 1 н/о н/о +24.1 +22.2 89 +31 +31 очень
душно
1016.7 1006.2
21 14.06 штиль 0 н/о н/о +22.7 +21.5 93 +30 +30 очень
душно
1017.1 1006.5
22 14.06 В 2 н/о н/о +22.9 +21.2 90 +30 +30 очень
душно
1016.9 1006.3
23 14.06 ЮЗ 1 н/о н/о +21.6 +20.8 95 +27 +27 душно 1016.5 1005.9
00 15.06 СВ 2 н/о н/о +21.0 +20.7 98 +27 +27 душно 1016.4 1005.8
01 15.06 СВ 2 н/о н/о +20.9 +20.1 95 +26 +26 душно 1016.3 1005.7
02 15.06 СВ 2 н/о н/о +20.4 +19.9 97 +25 +25 комфорт 1016.2 1005.6
03 15.06 СВ 2 н/о н/о +20.2 +19.2 94 +24 +24 комфорт 1016.2 1005.6
04 15.06 СВ 2 н/о н/о +20.8 +19.3 91 +26 +26 душно 1016.4 1005.8
05 15.06 СВ 2 н/о н/о +22.7 +19.1 80 +29 +29 очень
душно
1016.5 1005.9
06 15.06 СВ 3 н/о н/о +24.3 +19.2 73 +29 +29 душно 1016.3 1005.8 +20.1 0.2
07 15.06 СВ 2 н/о н/о +26.6 +20.0 67 +33 +33 очень
душно
1016.1 1005.7
08 15.06 В 2 н/о н/о +28.4 +20.7 63 +35 +35 очень
душно
1016.1 1005.7
09 15.06 В 2 н/о н/о +30.3 +21.4 59 +38 +38 очень
душно
1015.8 1005.5
10 15.06 Ю 2 н/о н/о +31.2 +21.1 55 +39 +39 очень
душно
1015.4 1005.1
11 15.06 Ю 2 н/о н/о +32.4 +21.3 52 +40 +40 очень
душно
1014.9 1004.7
12 15.06 ЮВ 3 н/о н/о +32.6 +20.5 49 +39 +39 очень
душно
1014.2 1004.0
13 15.06 ЮВ 2 н/о н/о +32.9 +19.4 45 +38 +38 очень
душно
1013.5 1003.3
14 15.06 ЮВ 2 н/о н/о +33.5 +18.8 42 +38 +38 очень
душно
1013.2 1003.0
15 15.06 Ю 2 н/о н/о +33.5 +18.4 41 +38 +38 очень
душно
1012.8 1002.6
16 15.06 З 2 н/о н/о +33.3 +16.6 37 +36 +36 очень
душно
1012.6 1002.4
17 15.06 ЮЗ 2 н/о н/о +32.7 +18.5 43 +37 +37 очень
душно
1012.6 1002.4
18 15.06 Ю 1 н/о н/о +30.2 +19.9 54 +36 +36 очень
душно
1012.3 1002.0 +33.9
19 15.06 Ю 1 н/о н/о +27.6 +21.4 69 +35 +35 очень
душно
1012.4 1002.1
20 15.06 Ю 2 н/о н/о +26.6 +20.9 71 +33 +33 очень
душно
1013.0 1002.6
21 15.06 З 1 н/о н/о +23.4 +20.2 82 +31 +31 очень
душно
1012.7 1002.2
22 15.06 В 2 н/о н/о +23.0 +19.8 82 +30 +30 очень
душно
1012.4 1001.9
23 15.06 штиль 0 н/о н/о +22.1 +19.5 85 +28 +28 душно 1012.5 1002.0
00 16.06 штиль 0 н/о н/о +20.5 +19.8 96 +24 +24 комфорт 1012.7 1002.1
01 16.06 В 1 н/о н/о +20.6 +20.3 98 +26 +26 душно 1012.4 1001.8
02 16.06 штиль 0 н/о н/о +20.8 +19.6 93 +25 +25 комфорт 1012.5 1001.9
03 16.06 СЗ 1 н/о н/о +19.1 +18.8 98 +22 +22 комфорт 1012.8 1002.2
04 16.06 С 1 н/о н/о +20.8 +20.0 95 +27 +27 душно 1013.1 1002.5
05 16.06 С 1 н/о н/о +23.1 +21.6 91 +31 +31 очень
душно
1013.2 1002.7
06 16.06 СВ 1 н/о н/о +25.6 +21.7 79 +33 +33 очень
душно
1013.2 1002.8 +19.1
07 16.06 В 1 н/о н/о +27.9 +22.6 73 +37 +37 очень
душно
1013.2 1002.9
08 16.06 В 1 н/о н/о +29.8 +22.3 64 +39 +39 очень
душно
1013.4 1003.1
09 16.06 ЮВ 2 н/о н/о +31.7 +21.8 56 +40 +40 очень
душно
1013.2 1003.0
10 16.06 ЮВ 2 н/о н/о +31.6 +20.2 51 +38 +38 очень
душно
1013.2 1003.0
11 16.06 В 3 н/о н/о +32.0 +21.8 55 +41 +41 опасность
перегрева
1012.8 1002.6
12 16.06 В 2 н/о н/о +32.8 +19.3 45 +38 +38 очень
душно
1012.3 1002.1
13 16.06 ЮВ 2 н/о н/о +33.1 +19.6 45 +39 +39 очень
душно
1011.7 1001.5
14 16.06 Ю 1 н/о н/о +31.8 +19.4 48 +38 +38 очень
душно
1011.4 1001.2
15 16.06 З 3 н/о н/о +27.3 +18.6 59 +32 +32 очень
душно
1010.7 1000.4
16 16.06 СЗ 2 н/о н/о +26.5 +19.6 66 +32 +32 очень
душно
1011.6 1001.2
17 16.06 З 4
{10}
н/о н/о +24.7 +19.5 73 +30 +30 очень
душно
1012.7 1002.3
18 16.06 СЗ 4
{12}
н/о н/о +24.0 +15.5 59 +27 +27 жарко 1014.1 1003.6 +33.4
19 16.06 СЗ 3
{17}
н/о н/о +18.5 +18.5 100 +20 +20 1019.0 1008.3
20 16.06 С 3
{8}
н/о н/о +18.4 +18.4 100 +19 +19 1018.1 1007.4
21 16.06 С 4
{9}
н/о н/о +19.1 +17.4 90 +21 +21 комфорт 1014.8 1004.1
22 16.06 С 8
{15}
н/о н/о +20.7 +15.5 72 +23 +23 комфорт 1013.6 1003.0
23 16.06 СВ 3
{8}
н/о н/о +19.2 +16.6 85 +21 +21 комфорт 1016.4 1005.7

 

Местоположение метеостанции Порозло (Венгрия): широта 47.65 долгота 20.63 высота над уровнем моря 92 м.

В архиве по умолчанию представлена погода в Порозло за последнюю неделю. Архивные данные за месяц целиком и за предыдущие месяцы, начиная с января 2011 года, Вы можете получить, выбрав интересующий диапазон дат из раскрывающегося списка и нажав кнопку "Ввод!".


*Определитесь, кто Вы:
робот инопланетянин человек

Внимание! Время в таблицах - всемирное. Для получения местного времени необходимо прибавить поправку, которая равна 1 ч.

Смотрите также архив погоды в соседних городах и на ближайших метеорологических станциях:

Погода в Эгере (Венгрия) (34 км)
Погода в Мишкольце (Венгрия) (51 км)
Погода на Кекеше (Венгрия) (52 км)
Погода в Сольноке (Венгрия) (66 км)
Погода в Дебрецене (Венгрия) (75 км)
Погода в Йосвафо (Венгрия) (93 км)
Погода в Сечене (Польша) (98 км)
Погода в Ньиредьхазе (Венгрия) (100 км)
Погода в Лученце (Словакия) (101 км)
Погода в Кечкемете (Венгрия) (105 км)

Пояснения к столбцам:

Ветер - указаны скорость ветра в м/с - средняя за 10 мин, порывы в срок и между сроками (в фигурных скобках) и направление, откуда дует ветер: С - северный, СВ - северо-восточный, В - восточный, ЮВ - юго-восточный, Ю - южный, ЮЗ - юго-западный, З - западный, СЗ - северо-западный.
Видимость - горизонтальная дальность видимости в метрах или километрах. При видимости от 1 до 10 км при отсутствии осадков обычно наблюдается дымка, при ухудшении видимости до 1 км и менее - туман. В сухую погоду видимость может ухудшаться дымом, пылью или мглою.
Явления - указаны атмосферные явления, наблюдавшиеся в срок или в последний час перед сроком; фигурными скобками обозначены явления, наблюдавшиеся между сроками (за 1-3 часа до срока); квадратными скобками обозначены град или гололедные отложения с указанием их диаметра в мм.
Облачность - указаны через наклонную черту общая и нижняя облачность в баллах и высота нижней границы облаков в метрах; квадратными скобками обозначены формы облаков: Ci - перистые, Cs - перисто-слоистые, Cc - перисто-кучевые, Ac - высококучевые, As - высокослоистые, Sc - слоисто-кучевые, Ns - слоисто-дождевые, Cu - кучевые, Cb - кучево-дождевые. Подробнее классификацию облаков см. в Атласе облаков (PDF).
T - Температура воздуха - температура, измеренная на высоте 2 м над землей.
Td - Температура точки росы - температура, при понижении до которой содержащийся в воздухе водяной пар достигнет насыщения.
f - Относительная влажность воздуха - влажноcть воздуха, измеренная на высоте 2 м над землей.
Te - Эффективная температура - температура, которую ощущает одетый по сезону человек в тени. Характеристика душности погоды. При расчете учитывается влияние влажности воздуха и скорости ветра на теплоощущения человека.
Tes - Эффективная температура на солнце - температура, которую ощущает человек, с поправкой на солнечный нагрев. Характеристика знойности погоды. Зависит от высоты солнца над горизонтом, облачности и скорости ветра. Ночью, в пасмурную погоду, а также при ветре 12 м/с и более поправка равна нулю.
P - Атмосферное давление - приведенное к уровню моря атмосферное давление.
Po - Атмосферное давление - измеренное на уровне метеостанции атмосферное давление.
Tmin - Минимальная температура - минимум температуры воздуха на высоте 2 м над землей.
Tmax - Максимальная температура - максимум температуры воздуха на высоте 2 м над землей.
R - Количество осадков - Количество выпавших осадков за период времени, мм. При наведении курсора мыши на число - период времени, за который выпало указанное количество осадков.
R24 - Количество осадков - Количество выпавших осадков за 24 часа, мм.
S - Снежный покров - Высота снежного покрова, см. При наведении курсора мыши на число - состояние снежного покрова и степень покрытия местности в баллах.